TimeEDT,TemperatureF,Dew PointF,Humidity,Sea Level PressureIn,VisibilityMPH,Wind Direction,Wind SpeedMPH,Gust SpeedMPH,PrecipitationIn,Events,Conditions,WindDirDegrees,DateUTC
12:56 AM,46.0,36.0,68,29.84,10.0,WSW,8.1,-,N/A,,Clear,240,2013-03-21 04:56:00
1:56 AM,44.1,36.0,73,29.82,10.0,West,5.8,-,N/A,,Clear,270,2013-03-21 05:56:00
2:56 AM,46.0,32.0,58,29.82,10.0,WNW,8.1,-,N/A,,Clear,290,2013-03-21 06:56:00
3:56 AM,45.0,30.0,56,29.81,10.0,West,5.8,-,N/A,,Clear,280,2013-03-21 07:56:00
4:56 AM,46.9,26.1,44,29.81,10.0,WNW,10.4,-,N/A,,Clear,300,2013-03-21 08:56:00
5:56 AM,45.0,26.1,48,29.84,10.0,WNW,10.4,-,N/A,,Clear,300,2013-03-21 09:56:00
6:56 AM,43.0,26.1,51,29.86,10.0,WNW,8.1,-,N/A,,Clear,300,2013-03-21 10:56:00
7:56 AM,42.1,27.0,55,29.87,10.0,WNW,8.1,-,N/A,,Partly Cloudy,300,2013-03-21 11:56:00
8:56 AM,46.0,26.1,46,29.89,10.0,NW,9.2,-,N/A,,Partly Cloudy,310,2013-03-21 12:56:00
9:56 AM,48.9,21.9,35,29.87,10.0,NW,16.1,23.0,N/A,,Scattered Clouds,320,2013-03-21 13:56:00
10:56 AM,50.0,19.9,31,29.86,10.0,NW,15.0,20.7,N/A,,Scattered Clouds,310,2013-03-21 14:56:00
11:56 AM,53.1,21.9,30,29.87,10.0,WNW,10.4,19.6,N/A,,Scattered Clouds,300,2013-03-21 15:56:00
12:56 PM,55.0,19.0,24,29.86,10.0,NW,13.8,23.0,N/A,,Mostly Cloudy,310,2013-03-21 16:56:00
1:56 PM,57.0,14.0,18,29.83,10.0,WNW,19.6,27.6,N/A,,Scattered Clouds,300,2013-03-21 17:56:00
2:56 PM,57.9,16.0,19,29.82,10.0,WNW,10.4,19.6,N/A,,Scattered Clouds,300,2013-03-21 18:56:00
3:56 PM,59.0,12.0,16,29.81,10.0,NW,16.1,24.2,N/A,,Scattered Clouds,310,2013-03-21 19:56:00
4:56 PM,59.0,10.0,14,29.81,10.0,West,18.4,24.2,N/A,,Scattered Clouds,270,2013-03-21 20:56:00
5:56 PM,57.9,9.0,14,29.82,10.0,WNW,13.8,26.5,N/A,,Scattered Clouds,290,2013-03-21 21:56:00
6:56 PM,55.9,10.0,16,29.84,10.0,WNW,11.5,-,N/A,,Partly Cloudy,300,2013-03-21 22:56:00
7:56 PM,51.1,14.0,23,29.88,10.0,NW,4.6,-,N/A,,Partly Cloudy,320,2013-03-21 23:56:00
8:56 PM,48.9,15.1,26,29.90,10.0,WNW,6.9,-,N/A,,Partly Cloudy,300,2013-03-22 00:56:00
9:56 PM,48.0,16.0,28,29.92,10.0,WNW,3.5,-,N/A,,Clear,290,2013-03-22 01:56:00
10:56 PM,42.1,21.9,45,29.94,10.0,Calm,Calm,-,N/A,,Clear,0,2013-03-22 02:56:00
11:56 PM,42.1,23.0,47,29.96,10.0,West,3.5,-,N/A,,Clear,280,2013-03-22 03:56:00